SCP
0 0 0 0 0 0 0 0 0 0 0 0 0 0 0 0 0 0 0 0 0 0 0 -0 -0 -0 -0 -0 -0 -0 -0 -0 0 -0 -0 -0 -0 -0 0 0 0 0 0 0 0 0 0 0 0
0 0 0 0 0 0 0 0 0 0 0 0 0 0 0 0 0 0 0 0 0 0 0 0 -0 -0 -0 -0 -0 -0 -0 -0 0 0 -0 -0 -0 -0 0 0 0 0 0 0 0 0 0 0 0
0 0 0 0 0 0 0 0 0 0 0 0 0 0 0 0 0 0 0 0 0 0 0 0 -0 -0 -0 -0 -0 -0 -0 -0 -0 -0 -0 -0 -0 0 0 0 0 0 0 0 0 0 0 0 0
0 0 0 0 0 0 0 0 0 0 0 0 0 0 0 0 0 0 0 0 0 0 0 0 0 -0 -0 0 0 -0 -0 -0 -0 0 0 -0 -0 0 0 0 0 0 0 0 0 0 0 0 0
0 0 0 0 0 0 0 0 0 0 0 0 0 0 0 0 0 0 0 0 0 0 0 0 0 0 0 0 0 0 0 0 0 0 0 0 0 0 0 0 0 0 0 0 0 0 0 0 0
0 0 0 0 0 0 0 0 0 0 0 0 0 0 0 0 0 0 0 0 0 0 0 0 0 0 0 0 0 0 0 0 0 0 0 0 0 0 0 0 0 0 0 0 0 0 0 0 0
0 0 0 0 0 0 0 0 0 0 0 0 0 0 0 0 0 0 0 0 0 0 0 0 0 0 0 0 0 0 0 0 0 0 0 0 0 0 0 0 0 0 0 0 0 0 0 0 0
0 0 0 0 0 0 0 0 0 0 0 0 0 0 0 0 0 0 0 0 0 0 0 0 0 0 0 0 0 0 0 0 0 0 0 0 0 0 0 0 0 0 0 0 0 0 0 0 0
0 0 0 0 0 0 0 0 0 0 0 0 0 0 0 0 0 0 0 0 0 0 0 0 0 0 0 0 0 0 0 0 0 0 0 0 0 0 0 0 0 0 0 0 0 0 0 0 0
0 0 0 0 0 0 0 0 0 0 0 0 0 0 0 0 0 0 0 0 0 0 0 0 0 0 0 0 0 0 0 0 0 0 0 0 0 0 0 0 0 0 0 0 0 0 0 0 0
0 0 0 0 0 0 0 0 0 0 0 0 0 0 0 0 0 0 0 0 0 0 0 0 0 0 0 0 0 0 0 0 0 0 0 0 0 0 0 0 0 0 0 0 0 0 0 0 0
0 0 0 0 0 0 0 0 0 0 0 0 0 0 0 0 0 0 0 0 0 0 0 0 0 0 0 0 0 0 0 0 0 0 0 0 0 0 0 0 0 0 0 0 0 0 0 0 0
0 0 0 0 0 0 0 0 0 0 0 0 0 0 0 0 0 0 0 0 0 0 0 0 0 0 0 0 0 0 0 0 0 0 0 0 0 0 0 0 0 0 0 0 0 0 0 0 0
0 0 0 0 0 0 0 0 0 0 0 0 0 0 0 0 0 0 0 0 0 0 0 0 0 0 0 0 0 0 0 0 0 0 0 0 0 0 0 0 0 0 0 0 0 0 0 0 0
0 0 0 0 0 0 0 0 0 0 0 0 0 0 0 0 0 0 0 0 0 0 0 0 0 0 0 0 0 0 0 0 0 0 0 0 0 0 0 0 0 0 0 0 0 0 0 0 0
0 0 0 0 0 0 0 0 0 0 0 0 0 0 0 0 0 0 0 0 0 0 0 0 0 0 0 0 0 0 0 0 0 0 0 0 0 0 0 0 0 0 0 0 0 0 0 0 0
0 0 0 0 0 0 0 0 0 0 0 0 0 0 0 0 0 0 0 0 0 0 0 0 0 0 0 0 0 0 0 0 0 0 0 0 0 0 0 0 0 0 0 0 0 0 0 0 0
0 0 0 0 0 0 0 0 0 0 0 0 0 0 0 0 0 0 0 0 0 0 0 0 0 0 0 0 0 0 0 0 0 0 0 0 0 0 0 0 0 0 0 0 0 0 0 0 0
0 0 0 0 0 0 0 0 0 0 0 0 0 0 0 0 0 0 0 0 0 0 0 0 0 0 0 0 0 0 0 0 0 0 0 0 0 0 0 0 0 0 0 0 0 0 0 0 0
0 0 0 0 0 0 0 0 0 0 0 0 0 0 0 0 0 0 0 0 0 0 0 0 0 0 0 0 0 0 0 0 0 0 0 0 0 0 0 0 0 0 0 0 0 0 0 0 0
0 0 0 0 0 0 0 0 0 0 0 0 0 0 0 0 0 0 0 0 0 0 0 0 0 0 0 0 0 0 0 0 0 0 0 0 0 0 0 0 0 0 0 0 0 0 0 0 0
0 0 0 0 0 0 0 0 0 0 -0 0 0 0 0 0 0 0 0 0 0 0 0 0 0 0 0 0 0 0 0 0 0 0 0 0 0 0 0 0 0 0 0 0 0 0 0 0 0
0 0 0 0 0 0 0 0 -0 -0 0 0 0 0 0 0 0 0 0 0 0 0 0 0 0 0 0 0 0 0 0 0 0 0 0 0 0 0 0 0 0 0 0 0 0 0 0 0 0
0 0 0 0 0 0 0 0 0 0 0 0 0 0 0 0 0 0 0 0 0 0 0 0 0 0 0 0 0 0 0 0 0 0 0 0 0 0 0 0 0 0 0 0 0 0 0 0 0
0 0 0 0 0 0 0 0 0 0 0 0 0 0 0 0 0 0 0 0 0 0 0 0 0 0 0 0 0 0 0 0 0 0 0 0 0 0 0 0 0 0 0 0 0 0 0 0 0
0 0 0 0 0 0 0 0 0 0 0 0 0 0 0 0 0 0 0 0 0 0 0 0 0 0 0 0 0 0 0 0 0 0 0 0 0 0 0 0 0 0 0 0 0 0 0 0 0
0 0 0 0 0 0 0 0 0 0 0 0 0 0 0 0 0 0 0 0 0 0 0 0 0 0 0 0 0 0 0 0 0 0 0 0 0 0 0 0 0 0 0 0 0 0 0 0 0
0 0 0 0 0 0 0 0 0 0 0 0 0 0 0 0 0 0 0 0 0 0 0 0 0 0 0 0 0 0 0 0 0 0 0 0 0 0 0 0 0 0 0 0 0 0 0 0 0
0 0 0 0 0 0 0 0 0 0 0 0 0 0 0 0 0 0 0 0 0 0 0 0 0 0 0 0 0 0 0 0 0 0 0 0 0 0 0 0 0 0 0 0 0 0 0 0 0
0 0 0 0 0 0 0 0 0 0 0 0 0 0 0 0 0 0 0 0 0 0 0 0 0 0 0 0 0 0 0 0 0 0 0 0 0 0 0 0 0 0 0 0 0 0 0 0 0
Wind_Speed_500mb
6 10 11 9 6 7 16 26 6 1 5 4 13 8 10 29 9 7 33 26 30 35 42 36 30 25 22 14 16 15 16 17 15 13 12 11 11 10 9 6 6 7 6 5 6 8 9 9 9
12 7 7 17 7 11 17 34 10 9 15 9 7 8 8 11 13 25 22 32 36 35 42 39 32 27 29 19 17 14 14 13 11 11 11 9 7 7 6 5 5 7 10 11 11 10 11 13 13
15 16 12 6 9 16 8 13 8 22 16 7 6 6 9 10 14 27 18 34 34 38 40 38 31 26 23 21 18 15 13 12 10 9 8 8 6 4 3 1 2 4 8 11 13 15 18 20 21
6 9 14 8 23 21 22 4 10 8 6 10 10 6 11 22 19 15 31 30 33 34 33 35 36 29 21 24 21 17 13 12 10 9 6 4 2 2 3 6 8 10 11 14 15 15 17 21 21
13 19 11 14 29 27 16 5 9 9 16 23 14 7 13 15 16 22 32 29 32 29 29 32 28 23 24 23 20 18 16 14 12 9 7 5 5 7 9 11 13 15 18 19 19 20 20 21 22
12 15 11 22 29 28 23 13 23 20 20 13 18 23 12 13 21 26 33 33 23 23 26 31 29 26 26 26 24 23 21 17 14 10 8 8 10 13 13 13 13 15 17 19 20 20 21 23 23
18 10 20 25 26 22 16 25 16 18 24 23 20 8 16 23 26 28 34 36 29 21 21 27 30 31 30 29 27 24 21 18 16 13 12 12 13 14 15 15 15 17 18 20 21 23 24 24 25
22 9 24 27 26 33 15 22 10 17 18 19 23 9 13 36 35 33 37 37 37 32 25 23 27 28 29 30 28 25 21 19 17 16 16 16 16 15 15 14 15 17 19 21 23 24 25 27 28
20 9 20 33 32 19 18 11 19 14 13 13 16 6 26 34 37 40 44 40 40 39 36 30 27 30 33 32 30 27 25 23 22 20 19 18 18 18 14 17 18 19 21 23 24 26 28 29 31
15 11 26 26 23 17 16 15 20 11 23 19 22 20 30 33 41 47 50 47 44 42 41 38 35 34 30 30 31 31 29 28 25 23 21 20 18 19 21 20 21 22 24 26 26 28 29 29 30
19 24 31 31 41 25 16 20 27 16 15 34 44 41 37 38 43 44 44 43 44 42 42 43 39 38 36 35 31 31 32 29 27 25 23 22 23 22 23 25 26 28 29 30 31 32 32 32 31
27 34 45 48 61 12 11 30 18 35 35 15 35 56 48 50 48 47 46 44 45 46 43 45 42 40 38 40 34 33 32 31 30 27 25 24 25 24 24 26 28 30 32 33 35 36 36 36 35
32 36 54 42 45 25 21 29 31 30 46 44 24 22 48 49 50 46 43 41 44 47 45 47 45 42 41 40 35 36 35 32 32 28 26 26 26 26 26 27 30 31 34 35 36 38 39 40 39
27 49 51 47 51 35 18 35 39 28 54 44 42 43 41 47 48 44 45 48 49 51 51 51 47 45 44 41 41 38 37 36 32 31 27 26 27 26 28 29 31 32 34 35 37 38 39 39 39
45 29 28 31 31 16 17 37 32 79 47 45 57 52 49 49 47 53 54 55 55 57 56 57 50 46 47 44 44 42 40 36 34 32 28 28 26 27 26 27 28 31 32 35 37 39 40 40 37
15 27 29 18 24 19 23 35 20 78 59 57 52 50 58 54 56 49 46 51 54 57 55 56 55 50 50 47 47 44 43 37 36 34 32 30 27 26 26 27 30 34 35 39 41 40 40 40 39
24 19 30 29 32 21 34 17 25 51 62 58 56 57 48 53 53 58 59 57 54 52 53 56 59 57 53 51 50 47 44 39 38 36 34 32 28 28 28 30 33 36 37 37 37 37 39 39 39
25 30 30 32 18 35 33 37 21 18 17 29 50 44 52 53 57 54 60 63 64 63 60 56 57 60 56 56 56 52 47 41 42 37 35 35 32 32 33 35 38 40 38 35 34 34 35 38 39
32 28 31 24 25 13 43 37 30 39 26 22 32 45 56 58 54 52 57 59 57 56 56 59 60 60 59 64 62 57 52 46 44 40 40 36 36 37 37 38 41 42 39 36 37 38 37 34 33
34 31 44 33 18 19 12 33 28 32 29 46 48 55 56 56 52 61 65 60 58 55 53 53 60 62 61 60 57 53 47 44 41 43 43 39 40 40 40 42 41 40 40 39 39 39 36 33 28
41 44 43 40 21 4 9 29 24 19 31 46 63 65 64 68 68 71 67 62 57 57 54 55 63 63 58 54 53 53 49 47 44 41 38 39 42 43 41 41 41 42 44 41 39 37 35 30 25
44 44 41 42 23 26 13 40 38 32 43 47 64 65 72 75 72 77 72 62 58 53 49 54 59 59 55 52 57 54 47 43 37 37 40 40 38 40 43 44 44 43 41 40 36 34 35 33 26
38 23 37 37 26 11 16 11 35 23 43 40 47 69 68 77 76 77 75 63 52 50 50 53 57 55 54 57 50 46 43 39 37 38 37 41 43 45 44 42 42 40 38 36 36 34 36 36 32
22 7 6 4 14 24 41 24 59 31 43 18 18 70 72 70 70 78 69 59 55 50 50 53 54 53 53 48 47 44 42 41 42 41 40 40 40 41 41 37 35 35 35 34 33 35 36 37 36
9 17 10 11 12 20 27 25 48 18 46 46 38 47 63 71 73 69 67 66 61 55 53 50 49 50 46 42 42 41 40 41 40 40 39 39 39 39 37 35 31 30 31 30 32 35 33 31 32
32 36 16 17 12 13 28 19 25 18 37 37 16 22 56 65 67 66 65 63 61 59 54 50 47 44 43 40 39 39 39 39 39 39 39 38 39 39 35 33 33 32 31 32 32 33 33 31 31
13 28 37 8 3 8 10 10 22 16 8 5 1 36 48 58 62 63 60 60 59 54 51 48 44 42 39 37 36 38 37 36 37 37 36 34 36 38 36 34 36 36 37 37 37 37 38 35 33
18 16 11 15 15 12 10 7 16 7 17 16 14 20 44 54 56 57 54 54 52 51 49 46 44 42 39 35 34 34 35 34 34 33 34 35 35 37 38 36 35 37 38 39 41 42 40 38 36
9 14 9 9 12 10 5 10 5 10 7 19 18 33 50 61 61 60 60 56 54 53 48 43 38 34 34 33 32 33 34 34 31 31 31 30 32 34 35 37 36 36 35 33 35 34 33 34 34
8 17 28 11 10 10 3 10 2 2 6 3 19 43 56 63 66 61 57 53 48 44 40 37 34 31 30 30 31 32 33 32 31 30 29 28 29 31 31 30 30 31 32 30 32 31 31 33 33
Wind_Direction_500mb
210 163 117 233 235 198 257 246 206 55 344 6 9 20 347 50 25 129 162 150 163 168 173 177 188 196 195 194 185 169 155 145 140 132 126 123 127 137 153 162 171 162 170 193 223 242 249 255 268
169 198 195 245 251 227 246 226 150 232 94 73 25 321 296 97 83 141 152 155 159 171 179 188 195 202 212 203 189 184 172 160 151 140 134 132 131 127 129 146 185 221 246 259 260 254 256 257 263
186 171 248 213 216 225 258 34 23 94 91 153 191 244 349 79 103 135 173 170 164 178 185 192 198 204 216 185 189 188 184 170 159 154 143 140 133 122 116 152 246 262 263 266 269 271 270 268 266
135 214 259 255 248 221 244 33 63 78 78 242 258 144 110 115 144 197 161 161 167 180 185 192 202 208 190 185 194 191 186 181 175 167 163 168 190 250 280 289 290 285 280 278 279 279 277 271 271
214 259 235 219 253 261 272 148 83 269 188 189 208 197 120 170 176 158 153 153 172 187 185 193 191 188 181 187 193 193 194 198 194 196 201 231 266 284 291 289 288 288 288 288 288 288 284 279 276
225 256 242 231 245 241 238 171 176 204 248 140 195 252 131 183 170 161 149 156 197 190 194 188 187 188 189 194 195 198 201 206 213 226 249 274 294 302 303 302 302 297 294 294 294 292 289 286 283
245 252 249 263 265 266 185 181 210 215 225 210 174 237 158 170 176 173 153 164 170 198 190 185 187 191 192 196 198 201 205 213 224 234 253 270 280 287 291 299 302 303 304 304 303 301 297 291 285
244 247 262 255 256 264 267 132 187 241 242 210 183 211 169 175 185 172 157 171 174 176 193 197 190 195 198 202 203 206 211 220 231 242 253 265 272 277 287 293 298 302 304 307 308 309 307 303 297
276 246 243 244 247 248 135 157 174 199 232 197 189 157 153 183 176 167 169 175 187 193 197 209 196 199 206 208 211 214 218 225 232 242 253 260 268 275 277 289 296 302 305 307 310 310 309 308 303
212 231 238 248 260 263 174 183 184 175 211 216 173 192 185 188 181 181 181 184 195 199 200 211 208 206 221 215 215 220 226 232 238 245 252 260 266 275 286 293 297 302 303 302 303 303 304 305 303
209 240 254 271 275 305 288 183 222 195 242 204 200 205 200 187 186 191 193 200 206 212 208 214 215 213 219 232 223 226 229 234 239 244 251 258 264 271 281 289 295 298 301 303 305 305 304 302 299
242 243 253 265 284 278 245 274 219 220 233 249 212 220 207 204 202 206 208 206 209 212 216 217 217 218 218 226 225 229 233 236 241 246 251 257 265 271 277 283 288 293 295 298 301 302 303 302 299
232 239 253 272 270 264 274 260 251 242 235 249 233 177 204 208 212 214 216 218 209 214 216 222 218 219 220 228 227 230 235 238 243 245 247 255 262 271 278 286 291 295 296 300 301 302 304 303 301
258 242 253 259 267 263 241 260 254 250 241 242 217 226 203 216 214 215 210 213 219 219 216 225 222 219 222 226 230 233 235 236 242 245 246 253 264 274 284 290 295 298 302 303 302 302 301 301 300
266 265 264 251 244 223 251 259 237 241 235 232 236 218 220 217 214 218 224 215 218 222 217 222 226 222 224 224 230 231 234 236 238 243 249 255 263 275 285 292 297 300 306 304 304 302 301 299 298
274 229 249 227 224 223 207 252 241 236 227 232 232 228 217 218 218 209 218 220 214 224 220 218 227 224 225 225 230 231 234 236 237 242 246 252 258 267 279 288 293 298 301 300 298 297 296 296 295
230 237 224 252 226 197 195 243 251 247 222 226 225 225 230 214 222 225 214 211 210 217 222 219 227 231 225 225 228 230 234 233 238 240 247 252 257 267 278 286 292 298 299 299 296 294 294 294 293
229 219 235 247 228 215 204 233 279 285 278 227 217 216 223 219 224 227 220 216 214 215 217 220 226 231 226 223 226 228 231 232 238 242 247 255 261 270 279 288 294 298 298 296 296 297 294 294 293
255 260 247 230 238 191 222 229 225 248 231 238 234 228 222 218 217 225 232 224 218 215 215 213 223 228 224 222 224 226 230 231 237 243 249 255 261 271 279 287 290 292 291 292 295 295 294 291 288
241 255 261 277 287 203 246 248 239 241 243 209 215 225 227 217 209 217 223 225 221 221 222 217 220 228 227 225 224 226 229 232 237 241 248 253 261 268 276 280 283 284 285 288 289 289 289 289 285
225 229 242 252 272 283 348 275 247 246 257 250 218 222 221 215 207 215 218 224 221 223 223 221 219 225 225 221 214 214 218 224 233 243 251 257 264 269 273 276 279 280 282 283 281 281 281 276 260
238 225 237 242 248 250 176 268 257 249 229 227 231 214 214 213 210 215 220 220 220 220 217 213 216 219 217 211 212 218 223 230 237 246 250 257 264 273 278 281 280 280 280 279 275 273 269 266 258
238 222 227 245 241 242 219 248 260 206 239 234 223 227 215 212 210 212 218 217 215 212 207 204 207 211 209 210 212 215 216 220 227 239 249 263 271 277 279 280 280 279 277 274 269 265 263 257 253
234 202 27 290 230 230 222 206 267 235 242 247 249 210 214 206 207 204 207 207 204 204 199 198 200 201 205 208 209 213 219 226 233 241 255 264 269 274 278 281 279 277 274 271 268 264 261 258 255
130 146 206 215 208 236 205 208 240 227 233 243 250 208 203 194 190 186 188 190 193 193 191 192 195 197 200 204 210 218 226 235 243 253 260 265 268 271 276 278 280 276 270 264 262 261 265 259 256
190 193 209 227 209 228 161 206 235 231 232 253 232 220 186 178 179 178 185 193 191 188 188 191 193 197 202 208 218 226 233 242 250 254 258 259 261 265 269 275 277 274 269 268 263 261 260 258 257
183 217 222 273 190 252 179 268 304 212 190 142 144 158 164 167 172 176 184 188 190 187 190 194 197 203 209 215 223 233 240 245 251 253 258 261 261 266 270 270 269 266 266 268 268 265 264 262 256
208 155 196 211 231 239 197 262 227 244 206 156 167 166 161 163 168 170 181 182 186 184 189 194 199 206 215 221 228 236 244 245 248 255 259 262 266 268 270 271 266 265 264 265 265 261 260 256 253
164 193 206 229 212 238 196 231 228 243 221 181 167 175 163 162 164 170 174 182 186 189 192 198 205 209 219 225 232 239 245 251 251 254 258 262 267 270 271 272 269 266 263 262 261 259 254 253 251
319 233 196 201 177 231 38 268 295 330 315 230 170 172 165 165 166 175 182 187 188 189 190 194 201 209 218 229 235 242 245 252 257 256 258 262 267 271 273 272 269 266 264 261 260 257 253 252 251
Wind_Speed_850mb
6 10 11 9 6 7 16 26 6 1 5 4 13 8 10 29 9 7 33 26 30 35 42 36 30 25 22 14 16 15 16 17 15 13 12 11 11 10 9 6 6 7 6 5 6 8 9 9 9
12 7 7 17 7 11 17 34 10 9 15 9 7 8 8 11 13 25 22 32 36 35 42 39 32 27 29 19 17 14 14 13 11 11 11 9 7 7 6 5 5 7 10 11 11 10 11 13 13
15 16 12 6 9 16 8 13 8 22 16 7 6 6 9 10 14 27 18 34 34 38 40 38 31 26 23 21 18 15 13 12 10 9 8 8 6 4 3 1 2 4 8 11 13 15 18 20 21
6 9 14 8 23 21 22 4 10 8 6 10 10 6 11 22 19 15 31 30 33 34 33 35 36 29 21 24 21 17 13 12 10 9 6 4 2 2 3 6 8 10 11 14 15 15 17 21 21
13 19 11 14 29 27 16 5 9 9 16 23 14 7 13 15 16 22 32 29 32 29 29 32 28 23 24 23 20 18 16 14 12 9 7 5 5 7 9 11 13 15 18 19 19 20 20 21 22
12 15 11 22 29 28 23 13 23 20 20 13 18 23 12 13 21 26 33 33 23 23 26 31 29 26 26 26 24 23 21 17 14 10 8 8 10 13 13 13 13 15 17 19 20 20 21 23 23
18 10 20 25 26 22 16 25 16 18 24 23 20 8 16 23 26 28 34 36 29 21 21 27 30 31 30 29 27 24 21 18 16 13 12 12 13 14 15 15 15 17 18 20 21 23 24 24 25
22 9 24 27 26 33 15 22 10 17 18 19 23 9 13 36 35 33 37 37 37 32 25 23 27 28 29 30 28 25 21 19 17 16 16 16 16 15 15 14 15 17 19 21 23 24 25 27 28
20 9 20 33 32 19 18 11 19 14 13 13 16 6 26 34 37 40 44 40 40 39 36 30 27 30 33 32 30 27 25 23 22 20 19 18 18 18 14 17 18 19 21 23 24 26 28 29 31
15 11 26 26 23 17 16 15 20 11 23 19 22 20 30 33 41 47 50 47 44 42 41 38 35 34 30 30 31 31 29 28 25 23 21 20 18 19 21 20 21 22 24 26 26 28 29 29 30
19 24 31 31 41 25 16 20 27 16 15 34 44 41 37 38 43 44 44 43 44 42 42 43 39 38 36 35 31 31 32 29 27 25 23 22 23 22 23 25 26 28 29 30 31 32 32 32 31
27 34 45 48 61 12 11 30 18 35 35 15 35 56 48 50 48 47 46 44 45 46 43 45 42 40 38 40 34 33 32 31 30 27 25 24 25 24 24 26 28 30 32 33 35 36 36 36 35
32 36 54 42 45 25 21 29 31 30 46 44 24 22 48 49 50 46 43 41 44 47 45 47 45 42 41 40 35 36 35 32 32 28 26 26 26 26 26 27 30 31 34 35 36 38 39 40 39
27 49 51 47 51 35 18 35 39 28 54 44 42 43 41 47 48 44 45 48 49 51 51 51 47 45 44 41 41 38 37 36 32 31 27 26 27 26 28 29 31 32 34 35 37 38 39 39 39
45 29 28 31 31 16 17 37 32 79 47 45 57 52 49 49 47 53 54 55 55 57 56 57 50 46 47 44 44 42 40 36 34 32 28 28 26 27 26 27 28 31 32 35 37 39 40 40 37
15 27 29 18 24 19 23 35 20 78 59 57 52 50 58 54 56 49 46 51 54 57 55 56 55 50 50 47 47 44 43 37 36 34 32 30 27 26 26 27 30 34 35 39 41 40 40 40 39
24 19 30 29 32 21 34 17 25 51 62 58 56 57 48 53 53 58 59 57 54 52 53 56 59 57 53 51 50 47 44 39 38 36 34 32 28 28 28 30 33 36 37 37 37 37 39 39 39
25 30 30 32 18 35 33 37 21 18 17 29 50 44 52 53 57 54 60 63 64 63 60 56 57 60 56 56 56 52 47 41 42 37 35 35 32 32 33 35 38 40 38 35 34 34 35 38 39
32 28 31 24 25 13 43 37 30 39 26 22 32 45 56 58 54 52 57 59 57 56 56 59 60 60 59 64 62 57 52 46 44 40 40 36 36 37 37 38 41 42 39 36 37 38 37 34 33
34 31 44 33 18 19 12 33 28 32 29 46 48 55 56 56 52 61 65 60 58 55 53 53 60 62 61 60 57 53 47 44 41 43 43 39 40 40 40 42 41 40 40 39 39 39 36 33 28
41 44 43 40 21 4 9 29 24 19 31 46 63 65 64 68 68 71 67 62 57 57 54 55 63 63 58 54 53 53 49 47 44 41 38 39 42 43 41 41 41 42 44 41 39 37 35 30 25
44 44 41 42 23 26 13 40 38 32 43 47 64 65 72 75 72 77 72 62 58 53 49 54 59 59 55 52 57 54 47 43 37 37 40 40 38 40 43 44 44 43 41 40 36 34 35 33 26
38 23 37 37 26 11 16 11 35 23 43 40 47 69 68 77 76 77 75 63 52 50 50 53 57 55 54 57 50 46 43 39 37 38 37 41 43 45 44 42 42 40 38 36 36 34 36 36 32
22 7 6 4 14 24 41 24 59 31 43 18 18 70 72 70 70 78 69 59 55 50 50 53 54 53 53 48 47 44 42 41 42 41 40 40 40 41 41 37 35 35 35 34 33 35 36 37 36
9 17 10 11 12 20 27 25 48 18 46 46 38 47 63 71 73 69 67 66 61 55 53 50 49 50 46 42 42 41 40 41 40 40 39 39 39 39 37 35 31 30 31 30 32 35 33 31 32
32 36 16 17 12 13 28 19 25 18 37 37 16 22 56 65 67 66 65 63 61 59 54 50 47 44 43 40 39 39 39 39 39 39 39 38 39 39 35 33 33 32 31 32 32 33 33 31 31
13 28 37 8 3 8 10 10 22 16 8 5 1 36 48 58 62 63 60 60 59 54 51 48 44 42 39 37 36 38 37 36 37 37 36 34 36 38 36 34 36 36 37 37 37 37 38 35 33
18 16 11 15 15 12 10 7 16 7 17 16 14 20 44 54 56 57 54 54 52 51 49 46 44 42 39 35 34 34 35 34 34 33 34 35 35 37 38 36 35 37 38 39 41 42 40 38 36
9 14 9 9 12 10 5 10 5 10 7 19 18 33 50 61 61 60 60 56 54 53 48 43 38 34 34 33 32 33 34 34 31 31 31 30 32 34 35 37 36 36 35 33 35 34 33 34 34
8 17 28 11 10 10 3 10 2 2 6 3 19 43 56 63 66 61 57 53 48 44 40 37 34 31 30 30 31 32 33 32 31 30 29 28 29 31 31 30 30 31 32 30 32 31 31 33 33
Wind_Direction_850mb
210 163 117 233 235 198 257 246 206 55 344 6 9 20 347 50 25 129 162 150 163 168 173 177 188 196 195 194 185 169 155 145 140 132 126 123 127 137 153 162 171 162 170 193 223 242 249 255 268
169 198 195 245 251 227 246 226 150 232 94 73 25 321 296 97 83 141 152 155 159 171 179 188 195 202 212 203 189 184 172 160 151 140 134 132 131 127 129 146 185 221 246 259 260 254 256 257 263
186 171 248 213 216 225 258 34 23 94 91 153 191 244 349 79 103 135 173 170 164 178 185 192 198 204 216 185 189 188 184 170 159 154 143 140 133 122 116 152 246 262 263 266 269 271 270 268 266
135 214 259 255 248 221 244 33 63 78 78 242 258 144 110 115 144 197 161 161 167 180 185 192 202 208 190 185 194 191 186 181 175 167 163 168 190 250 280 289 290 285 280 278 279 279 277 271 271
214 259 235 219 253 261 272 148 83 269 188 189 208 197 120 170 176 158 153 153 172 187 185 193 191 188 181 187 193 193 194 198 194 196 201 231 266 284 291 289 288 288 288 288 288 288 284 279 276
225 256 242 231 245 241 238 171 176 204 248 140 195 252 131 183 170 161 149 156 197 190 194 188 187 188 189 194 195 198 201 206 213 226 249 274 294 302 303 302 302 297 294 294 294 292 289 286 283
245 252 249 263 265 266 185 181 210 215 225 210 174 237 158 170 176 173 153 164 170 198 190 185 187 191 192 196 198 201 205 213 224 234 253 270 280 287 291 299 302 303 304 304 303 301 297 291 285
244 247 262 255 256 264 267 132 187 241 242 210 183 211 169 175 185 172 157 171 174 176 193 197 190 195 198 202 203 206 211 220 231 242 253 265 272 277 287 293 298 302 304 307 308 309 307 303 297
276 246 243 244 247 248 135 157 174 199 232 197 189 157 153 183 176 167 169 175 187 193 197 209 196 199 206 208 211 214 218 225 232 242 253 260 268 275 277 289 296 302 305 307 310 310 309 308 303
212 231 238 248 260 263 174 183 184 175 211 216 173 192 185 188 181 181 181 184 195 199 200 211 208 206 221 215 215 220 226 232 238 245 252 260 266 275 286 293 297 302 303 302 303 303 304 305 303
209 240 254 271 275 305 288 183 222 195 242 204 200 205 200 187 186 191 193 200 206 212 208 214 215 213 219 232 223 226 229 234 239 244 251 258 264 271 281 289 295 298 301 303 305 305 304 302 299
242 243 253 265 284 278 245 274 219 220 233 249 212 220 207 204 202 206 208 206 209 212 216 217 217 218 218 226 225 229 233 236 241 246 251 257 265 271 277 283 288 293 295 298 301 302 303 302 299
232 239 253 272 270 264 274 260 251 242 235 249 233 177 204 208 212 214 216 218 209 214 216 222 218 219 220 228 227 230 235 238 243 245 247 255 262 271 278 286 291 295 296 300 301 302 304 303 301
258 242 253 259 267 263 241 260 254 250 241 242 217 226 203 216 214 215 210 213 219 219 216 225 222 219 222 226 230 233 235 236 242 245 246 253 264 274 284 290 295 298 302 303 302 302 301 301 300
266 265 264 251 244 223 251 259 237 241 235 232 236 218 220 217 214 218 224 215 218 222 217 222 226 222 224 224 230 231 234 236 238 243 249 255 263 275 285 292 297 300 306 304 304 302 301 299 298
274 229 249 227 224 223 207 252 241 236 227 232 232 228 217 218 218 209 218 220 214 224 220 218 227 224 225 225 230 231 234 236 237 242 246 252 258 267 279 288 293 298 301 300 298 297 296 296 295
230 237 224 252 226 197 195 243 251 247 222 226 225 225 230 214 222 225 214 211 210 217 222 219 227 231 225 225 228 230 234 233 238 240 247 252 257 267 278 286 292 298 299 299 296 294 294 294 293
229 219 235 247 228 215 204 233 279 285 278 227 217 216 223 219 224 227 220 216 214 215 217 220 226 231 226 223 226 228 231 232 238 242 247 255 261 270 279 288 294 298 298 296 296 297 294 294 293
255 260 247 230 238 191 222 229 225 248 231 238 234 228 222 218 217 225 232 224 218 215 215 213 223 228 224 222 224 226 230 231 237 243 249 255 261 271 279 287 290 292 291 292 295 295 294 291 288
241 255 261 277 287 203 246 248 239 241 243 209 215 225 227 217 209 217 223 225 221 221 222 217 220 228 227 225 224 226 229 232 237 241 248 253 261 268 276 280 283 284 285 288 289 289 289 289 285
225 229 242 252 272 283 348 275 247 246 257 250 218 222 221 215 207 215 218 224 221 223 223 221 219 225 225 221 214 214 218 224 233 243 251 257 264 269 273 276 279 280 282 283 281 281 281 276 260
238 225 237 242 248 250 176 268 257 249 229 227 231 214 214 213 210 215 220 220 220 220 217 213 216 219 217 211 212 218 223 230 237 246 250 257 264 273 278 281 280 280 280 279 275 273 269 266 258
238 222 227 245 241 242 219 248 260 206 239 234 223 227 215 212 210 212 218 217 215 212 207 204 207 211 209 210 212 215 216 220 227 239 249 263 271 277 279 280 280 279 277 274 269 265 263 257 253
234 202 27 290 230 230 222 206 267 235 242 247 249 210 214 206 207 204 207 207 204 204 199 198 200 201 205 208 209 213 219 226 233 241 255 264 269 274 278 281 279 277 274 271 268 264 261 258 255
130 146 206 215 208 236 205 208 240 227 233 243 250 208 203 194 190 186 188 190 193 193 191 192 195 197 200 204 210 218 226 235 243 253 260 265 268 271 276 278 280 276 270 264 262 261 265 259 256
190 193 209 227 209 228 161 206 235 231 232 253 232 220 186 178 179 178 185 193 191 188 188 191 193 197 202 208 218 226 233 242 250 254 258 259 261 265 269 275 277 274 269 268 263 261 260 258 257
183 217 222 273 190 252 179 268 304 212 190 142 144 158 164 167 172 176 184 188 190 187 190 194 197 203 209 215 223 233 240 245 251 253 258 261 261 266 270 270 269 266 266 268 268 265 264 262 256
208 155 196 211 231 239 197 262 227 244 206 156 167 166 161 163 168 170 181 182 186 184 189 194 199 206 215 221 228 236 244 245 248 255 259 262 266 268 270 271 266 265 264 265 265 261 260 256 253
164 193 206 229 212 238 196 231 228 243 221 181 167 175 163 162 164 170 174 182 186 189 192 198 205 209 219 225 232 239 245 251 251 254 258 262 267 270 271 272 269 266 263 262 261 259 254 253 251
319 233 196 201 177 231 38 268 295 330 315 230 170 172 165 165 166 175 182 187 188 189 190 194 201 209 218 229 235 242 245 252 257 256 258 262 267 271 273 272 269 266 264 261 260 257 253 252 251